User: anonymous   Login
Location: Sobotiste
(48.7170°N, 17.4000°E)
Time: 02:40:23
(UTC+02:00)
Language:

Envisat - Orbit

View from above orbital plane
View from above orbital plane
View from above satellite
View from above satellite

Ground track
Ground track

The orbit data is extracted from the following two-line orbital elements,

1 27386U 02009A   18262.10695618 -.00000013  00000-0  93512-5 0  9992
2 27386  98.1778 291.7067 0001246  88.3707 334.5257 14.37929727867029
Epoch (UTC): 19 September 2018 02:34:01
Eccentricity: 0.0001246
inclination: 98.1778°
perigee height: 764 km
apogee height: 766 km
right ascension of ascending node: 291.7067°
argument of perigee: 88.3707°
revolutions per day: 14.37929727
mean anomaly at epoch: 334.5257°
orbit number at epoch: 86702

The dashed part of the orbit path shows where the satellite is in the earth's shadow,  

DLR